sat.trackr.live / text

‹ back to catalog

STARLINK-30989

NORAD 58510 · 2023-191C

PAYLOAD ACTIVE UNKNOWN

§ Identity

Operator
Country
US
Launch date
2023-12-07
Launch site
AFETR
Launch vehicle
Mass (kg)
RCS (m²)

Purposes: comms

External: N2YO · Heavens-Above · Gunter

§ Orbital elements

Epoch: 2026-05-25T00:44:32.106624Z

Period
94.27 min
Inclination
43.0019°
Eccentricity
0.0001718
Mean motion
15.27585334 rev/d
Perigee alt
481.9 km
Apogee alt
484.2 km
Semi-major
6,861.2 km
B*
3.1640e-4
RAAN
32.5670°
Arg perigee
268.0967°
Mean anomaly
91.9688°
Rev number
13,717

§ Raw data

STARLINK-309891 58510U 23191C   26145.03092716  .00008456  00000+0  31640-3 0  99902 58510  43.0019  32.5670 0001718 268.0967  91.9688 15.27585334137179

JSON: /api/v1/satellites/58510 · /tle

For live sub-satellite position, see the globe view (requires WebGL).

§ Visibility from observer

Set your observer location to see the next 7 days of passes ≥ 10°. The values pass through the URL so the page stays shareable.

No JS? Fill the form by hand. The geolocation button needs JavaScript.